THY4902 LTDA-LTFM

Flight info

Callsign THY4902
Flight time N/A
Altitude 350
Route ADA1X/04 ADA UW75 BAG UA17 YAVRU UA4 ERSEN
Aircraft A321/M-SDE3/K

Departure

Time 2026-05-06 14:33
Airport Hatay Airport (LTDA)

Arrival

Time N/A
Airport İstanbul Airport (LTFM)
Time Latitude Longitude Altitude Speed Heading
2026-05-06 14:06 36.36224 36.28213 268 ft 0 kts 270°
2026-05-06 14:18 36.36224 36.28231 288 ft 3 kts 270°
2026-05-06 14:19 36.36223 36.28263 288 ft 3 kts 286°
2026-05-06 14:19 36.36208 36.28283 288 ft 3 kts 339°
2026-05-06 14:19 36.36194 36.28286 288 ft 0 kts
2026-05-06 14:22 36.36203 36.28286 287 ft 2 kts
2026-05-06 14:22 36.36223 36.28296 288 ft 3 kts 53°
2026-05-06 14:22 36.36210 36.28328 288 ft 5 kts 131°
2026-05-06 14:23 36.36180 36.28366 289 ft 6 kts 133°
2026-05-06 14:23 36.36145 36.28414 289 ft 8 kts 132°
2026-05-06 14:23 36.36109 36.28463 289 ft 7 kts 130°
2026-05-06 14:23 36.36080 36.28523 289 ft 8 kts 102°
2026-05-06 14:24 36.36105 36.28596 288 ft 10 kts 40°
2026-05-06 14:24 36.36169 36.28657 289 ft 12 kts 40°
2026-05-06 14:24 36.36240 36.28737 289 ft 15 kts 46°
2026-05-06 14:24 36.36326 36.28846 289 ft 19 kts 42°
2026-05-06 14:25 36.36429 36.28967 289 ft 20 kts 42°
2026-05-06 14:25 36.36535 36.29087 289 ft 20 kts 43°
2026-05-06 14:25 36.36643 36.29209 289 ft 21 kts 41°
2026-05-06 14:25 36.36752 36.29336 289 ft 21 kts 40°
2026-05-06 14:26 36.36862 36.29463 289 ft 21 kts 41°
2026-05-06 14:26 36.36969 36.29587 289 ft 19 kts 43°
2026-05-06 14:26 36.37060 36.29695 289 ft 12 kts 46°
2026-05-06 14:26 36.37128 36.29778 289 ft 12 kts 44°
2026-05-06 14:27 36.37170 36.29814 289 ft 7 kts 17°
2026-05-06 14:27 36.37228 36.29818 289 ft 8 kts
2026-05-06 14:27 36.37236 36.29820 289 ft 0 kts 15°
2026-05-06 14:31 36.37236 36.29821 289 ft 0 kts 18°
2026-05-06 14:31 36.37243 36.29829 289 ft 2 kts 59°
2026-05-06 14:31 36.37237 36.29852 289 ft 3 kts 131°
2026-05-06 14:31 36.37209 36.29863 289 ft 5 kts 193°
2026-05-06 14:32 36.37177 36.29829 289 ft 6 kts 226°
2026-05-06 14:32 36.37107 36.29747 289 ft 39 kts 221°
2026-05-06 14:32 36.36715 36.29292 289 ft 113 kts 224°
2026-05-06 14:32 36.35972 36.28458 289 ft 173 kts 222°
2026-05-06 14:33 36.35038 36.27522 1097 ft 165 kts 214°
2026-05-06 14:33 36.34089 36.26916 1976 ft 155 kts 206°
2026-05-06 14:33 36.33163 36.26303 2559 ft 155 kts 222°
2026-05-06 14:33 36.32419 36.25265 2941 ft 169 kts 232°
2026-05-06 14:34 36.31629 36.24089 3323 ft 185 kts 222°
2026-05-06 14:34 36.30426 36.23494 3693 ft 202 kts 178°
2026-05-06 14:34 36.29132 36.24202 4168 ft 215 kts 134°
2026-05-06 14:34 36.28563 36.25921 4737 ft 223 kts 90°
2026-05-06 14:35 36.29075 36.27675 5308 ft 226 kts 47°
2026-05-06 14:35 36.30415 36.28595 5917 ft 224 kts
2026-05-06 14:35 36.31961 36.28724 6541 ft 225 kts 359°
2026-05-06 14:35 36.33532 36.28778 7137 ft 229 kts
2026-05-06 14:36 36.35121 36.28933 7756 ft 231 kts
2026-05-06 14:36 36.36721 36.29145 8358 ft 232 kts
2026-05-06 14:36 36.38326 36.28737 8630 ft 247 kts 330°
2026-05-06 14:36 36.39611 36.27271 8961 ft 261 kts 299°
2026-05-06 14:37 36.40131 36.25074 9375 ft 274 kts 273°
2026-05-06 14:37 36.40250 36.22687 9897 ft 282 kts 282°
2026-05-06 14:37 36.41027 36.20457 10531 ft 286 kts 300°
2026-05-06 14:37 36.42109 36.18339 10965 ft 300 kts 303°
2026-05-06 14:38 36.43303 36.16130 11297 ft 317 kts 303°
2026-05-06 14:38 36.44566 36.13813 11581 ft 334 kts 303°
2026-05-06 14:38 36.45903 36.11357 11895 ft 349 kts 303°
2026-05-06 14:38 36.47275 36.08832 12275 ft 361 kts 303°
2026-05-06 14:39 36.48694 36.06214 12942 ft 364 kts 303°
2026-05-06 14:39 36.50103 36.03611 13625 ft 366 kts 303°
2026-05-06 14:39 36.51516 36.00997 14260 ft 368 kts 303°
2026-05-06 14:39 36.52935 35.98368 14896 ft 370 kts 303°
2026-05-06 14:40 36.54370 35.95703 15499 ft 373 kts 303°
2026-05-06 14:40 36.55813 35.93021 16094 ft 376 kts 303°
2026-05-06 14:40 36.57275 35.90300 16691 ft 378 kts 303°
2026-05-06 14:40 36.58723 35.87605 17280 ft 380 kts 303°
2026-05-06 14:41 36.60201 35.84851 17852 ft 382 kts 303°
2026-05-06 14:41 36.61662 35.82129 18420 ft 383 kts 303°
2026-05-06 14:41 36.63144 35.79362 18975 ft 385 kts 303°
2026-05-06 14:41 36.64625 35.76597 19504 ft 388 kts 303°
2026-05-06 14:42 36.66134 35.73778 20024 ft 390 kts 303°
2026-05-06 14:42 36.67635 35.70969 20526 ft 392 kts 303°
2026-05-06 14:42 36.69145 35.68140 21016 ft 394 kts 303°
2026-05-06 14:42 36.70649 35.65319 21495 ft 396 kts 303°
2026-05-06 14:43 36.72175 35.62458 21957 ft 399 kts 303°
2026-05-06 14:43 36.73701 35.59593 22404 ft 401 kts 303°
2026-05-06 14:43 36.75246 35.56690 22859 ft 403 kts 303°
2026-05-06 14:43 36.76804 35.53760 23304 ft 404 kts 303°
2026-05-06 14:44 36.78352 35.50847 23728 ft 406 kts 303°
2026-05-06 14:44 36.79916 35.47900 24141 ft 408 kts 303°
2026-05-06 14:44 36.81466 35.44975 24521 ft 410 kts 303°
2026-05-06 14:45 36.84628 35.39001 25277 ft 414 kts 303°
2026-05-06 14:45 36.86211 35.36005 25619 ft 415 kts 303°
2026-05-06 14:45 36.87785 35.33019 25952 ft 417 kts 302°
2026-05-06 14:45 36.89378 35.29985 26284 ft 419 kts 302°
2026-05-06 14:46 36.90986 35.26928 26603 ft 421 kts 303°
2026-05-06 14:46 36.92696 35.23943 26915 ft 422 kts 308°
2026-05-06 14:46 36.94702 35.21310 27331 ft 422 kts 316°
2026-05-06 14:46 36.97004 35.19035 27795 ft 421 kts 323°
2026-05-06 14:47 36.99486 35.17109 28230 ft 420 kts 327°
2026-05-06 14:47 37.01991 35.15277 28612 ft 419 kts 327°
2026-05-06 14:47 37.04522 35.13442 28966 ft 419 kts 327°
2026-05-06 14:47 37.07027 35.11625 29321 ft 418 kts 327°
2026-05-06 14:48 37.09560 35.09785 29690 ft 417 kts 327°
2026-05-06 14:48 37.12052 35.07974 30042 ft 416 kts 327°
2026-05-06 14:48 37.14549 35.06164 30373 ft 416 kts 327°
2026-05-06 14:48 37.17033 35.04358 30690 ft 415 kts 327°
2026-05-06 14:49 37.19534 35.02535 31001 ft 414 kts 327°
2026-05-06 14:49 37.22035 35.00708 31314 ft 413 kts 327°
2026-05-06 14:49 37.24499 34.98904 31608 ft 413 kts 327°
2026-05-06 14:49 37.26980 34.97085 31890 ft 412 kts 327°
2026-05-06 14:50 37.29430 34.95287 32163 ft 411 kts 326°
2026-05-06 14:50 37.31889 34.93481 32413 ft 411 kts 326°
2026-05-06 14:50 37.34367 34.91657 32619 ft 412 kts 326°
2026-05-06 14:50 37.36827 34.89844 32785 ft 413 kts 326°
2026-05-06 14:51 37.39327 34.88002 32966 ft 414 kts 326°
2026-05-06 14:51 37.41792 34.86183 33160 ft 414 kts 326°
2026-05-06 14:51 37.44291 34.84339 33338 ft 415 kts 326°
2026-05-06 14:51 37.46768 34.82508 33487 ft 416 kts 326°
2026-05-06 14:52 37.49267 34.80660 33651 ft 417 kts 327°
2026-05-06 14:52 37.51763 34.78812 33815 ft 417 kts 326°
2026-05-06 14:52 37.54239 34.76979 33978 ft 417 kts 327°
2026-05-06 14:52 37.56758 34.75111 34088 ft 419 kts 327°
2026-05-06 14:53 37.59273 34.73247 34090 ft 419 kts 327°
2026-05-06 14:53 37.64276 34.69494 34102 ft 419 kts 326°
2026-05-06 14:54 37.69262 34.65713 34102 ft 419 kts 326°
2026-05-06 14:54 37.74226 34.61944 34112 ft 419 kts 326°
2026-05-06 14:55 37.79230 34.58138 34115 ft 418 kts 326°
2026-05-06 14:55 37.84189 34.54358 34109 ft 416 kts 326°
2026-05-06 14:56 37.89118 34.50597 34110 ft 416 kts 326°
2026-05-06 14:56 37.94079 34.46869 34090 ft 416 kts 327°
2026-05-06 14:57 37.99076 34.43144 34082 ft 416 kts 327°
2026-05-06 14:57 38.04048 34.39422 34081 ft 417 kts 327°
2026-05-06 14:58 38.09038 34.35677 34091 ft 416 kts 327°
2026-05-06 14:58 38.14008 34.31936 34093 ft 415 kts 327°
2026-05-06 14:59 38.18984 34.28186 34100 ft 415 kts 327°
2026-05-06 14:59 38.23955 34.24432 34098 ft 416 kts 327°
2026-05-06 15:00 38.28890 34.20702 34097 ft 416 kts 327°
2026-05-06 15:00 38.33873 34.16930 34099 ft 414 kts 327°
2026-05-06 15:01 38.38789 34.13200 34096 ft 414 kts 327°
2026-05-06 15:01 38.43743 34.09432 34089 ft 413 kts 327°
2026-05-06 15:02 38.48644 34.05703 34081 ft 413 kts 327°
2026-05-06 15:02 38.53584 34.01936 34084 ft 413 kts 327°
2026-05-06 15:03 38.58499 33.98162 34083 ft 413 kts 327°
2026-05-06 15:03 38.63406 33.94380 34080 ft 413 kts 327°
2026-05-06 15:04 38.68333 33.90579 34087 ft 413 kts 327°
2026-05-06 15:04 38.73220 33.86801 34089 ft 412 kts 327°
2026-05-06 15:05 38.78105 33.83020 34092 ft 412 kts 327°
2026-05-06 15:05 38.83009 33.79216 34093 ft 412 kts 327°
2026-05-06 15:06 38.87915 33.75404 34093 ft 412 kts 327°
2026-05-06 15:06 38.92788 33.71611 34092 ft 411 kts 327°
2026-05-06 15:07 38.97674 33.67805 34094 ft 411 kts 327°
2026-05-06 15:07 39.02564 33.63987 34088 ft 412 kts 327°
2026-05-06 15:08 39.07420 33.60189 34091 ft 412 kts 327°
2026-05-06 15:08 39.12310 33.56364 34090 ft 411 kts 327°
2026-05-06 15:09 39.17187 33.52552 34094 ft 412 kts 328°
2026-05-06 15:09 39.22082 33.48706 34091 ft 412 kts 328°
2026-05-06 15:10 39.26998 33.44920 34096 ft 412 kts 328°
2026-05-06 15:10 39.31919 33.41138 34085 ft 412 kts 328°
2026-05-06 15:11 39.36842 33.37345 34085 ft 412 kts 329°
2026-05-06 15:11 39.41869 33.33809 34087 ft 412 kts 330°
2026-05-06 15:12 39.46817 33.30069 34084 ft 412 kts 327°
2026-05-06 15:12 39.51656 33.26164 34087 ft 412 kts 327°
2026-05-06 15:13 39.56509 33.22237 34083 ft 411 kts 327°
2026-05-06 15:13 39.61329 33.18335 34090 ft 411 kts 327°
2026-05-06 15:14 39.66194 33.14390 34089 ft 412 kts 327°
2026-05-06 15:14 39.71054 33.10442 34091 ft 412 kts 327°
2026-05-06 15:15 39.75877 33.06521 34093 ft 412 kts 327°
2026-05-06 15:15 39.80734 33.02562 34082 ft 412 kts 327°
2026-05-06 15:16 39.85572 32.98616 34088 ft 411 kts 327°
2026-05-06 15:16 39.90396 32.94670 34091 ft 411 kts 327°
2026-05-06 15:17 39.95215 32.90720 34095 ft 411 kts 327°
2026-05-06 15:17 40.00006 32.86749 34099 ft 410 kts 326°
2026-05-06 15:18 40.04533 32.82223 34100 ft 411 kts 320°
2026-05-06 15:18 40.08606 32.77042 34093 ft 412 kts 313°
2026-05-06 15:19 40.12196 32.71253 34093 ft 413 kts 308°
2026-05-06 15:19 40.15501 32.65118 34088 ft 414 kts 307°
2026-05-06 15:20 40.18784 32.58932 34086 ft 415 kts 307°
2026-05-06 15:20 40.22063 32.52735 34080 ft 415 kts 307°
2026-05-06 15:21 40.25334 32.46534 34082 ft 415 kts 307°
2026-05-06 15:21 40.28613 32.40307 34080 ft 416 kts 307°
2026-05-06 15:22 40.31876 32.34099 34082 ft 416 kts 306°
2026-05-06 15:22 40.35136 32.27853 34080 ft 417 kts 306°
2026-05-06 15:23 40.38403 32.21594 34079 ft 417 kts 306°
2026-05-06 15:23 40.41680 32.15318 34080 ft 417 kts 306°
2026-05-06 15:24 40.44954 32.09034 34076 ft 418 kts 306°
2026-05-06 15:24 40.48181 32.02811 34068 ft 419 kts 306°
2026-05-06 15:25 40.51456 31.96476 34067 ft 419 kts 306°
2026-05-06 15:25 40.54695 31.90154 34068 ft 420 kts 305°
2026-05-06 15:26 40.57587 31.83451 34077 ft 422 kts 299°
2026-05-06 15:26 40.59912 31.76404 34082 ft 424 kts 293°
2026-05-06 15:27 40.61796 31.69044 34087 ft 426 kts 291°
2026-05-06 15:27 40.63614 31.61656 34086 ft 426 kts 291°
2026-05-06 15:28 40.65429 31.54270 34086 ft 427 kts 291°
2026-05-06 15:28 40.67254 31.46833 34089 ft 426 kts 291°
2026-05-06 15:29 40.69069 31.39419 34090 ft 427 kts 291°
2026-05-06 15:29 40.70864 31.32054 34089 ft 427 kts 290°
2026-05-06 15:30 40.72665 31.24625 34091 ft 427 kts 290°
2026-05-06 15:30 40.74474 31.17146 34090 ft 428 kts 291°
2026-05-06 15:31 40.76268 31.09728 34094 ft 428 kts 290°
2026-05-06 15:31 40.78074 31.02231 34090 ft 428 kts 290°
2026-05-06 15:32 40.80756 30.91058 34087 ft 428 kts 291°
2026-05-06 15:32 40.82534 30.83617 33975 ft 423 kts 290°
2026-05-06 15:33 40.83419 30.79903 33402 ft 425 kts 290°
2026-05-06 15:33 40.84308 30.76168 32354 ft 435 kts 291°
2026-05-06 15:33 40.85206 30.72397 31585 ft 436 kts 291°
2026-05-06 15:33 40.86034 30.68568 31182 ft 430 kts 288°
2026-05-06 15:34 40.86678 30.64738 30751 ft 426 kts 284°
2026-05-06 15:34 40.87142 30.60907 30187 ft 425 kts 281°
2026-05-06 15:34 40.87525 30.57068 29590 ft 423 kts 281°
2026-05-06 15:34 40.87889 30.53285 29053 ft 419 kts 281°
2026-05-06 15:35 40.88276 30.49490 28528 ft 414 kts 284°
2026-05-06 15:35 40.89109 30.45883 27951 ft 406 kts 297°
2026-05-06 15:35 40.90524 30.42710 27434 ft 398 kts 310°
2026-05-06 15:35 40.92279 30.39976 26923 ft 394 kts 314°
2026-05-06 15:36 40.94111 30.37295 26336 ft 393 kts 314°
2026-05-06 15:36 40.95950 30.34606 25774 ft 391 kts 313°
2026-05-06 15:36 40.97731 30.31969 25260 ft 388 kts 313°
2026-05-06 15:36 40.99260 30.29033 24633 ft 392 kts 295°
2026-05-06 15:37 40.99844 30.25533 24128 ft 394 kts 275°
2026-05-06 15:37 40.99687 30.21932 23761 ft 391 kts 267°
2026-05-06 15:37 40.99403 30.18355 23275 ft 388 kts 267°
2026-05-06 15:37 40.99128 30.14846 22775 ft 387 kts 267°
2026-05-06 15:38 40.98870 30.11350 22303 ft 384 kts 267°
2026-05-06 15:38 40.98622 30.07846 21840 ft 381 kts 267°
2026-05-06 15:38 40.98384 30.04376 21376 ft 378 kts 268°
2026-05-06 15:38 40.98151 30.00926 20907 ft 375 kts 268°
2026-05-06 15:39 40.97924 29.97545 20473 ft 372 kts 268°
2026-05-06 15:39 40.97698 29.94140 20002 ft 369 kts 268°
2026-05-06 15:39 40.97474 29.90785 19540 ft 367 kts 268°
2026-05-06 15:39 40.97251 29.87463 19094 ft 363 kts 268°
2026-05-06 15:40 40.97031 29.84175 18549 ft 361 kts 268°
2026-05-06 15:40 40.96809 29.80861 18058 ft 358 kts 268°
2026-05-06 15:40 40.96589 29.77628 17610 ft 356 kts 268°
2026-05-06 15:40 40.96371 29.74415 17155 ft 353 kts 268°
2026-05-06 15:41 40.96154 29.71212 16702 ft 352 kts 268°
2026-05-06 15:41 40.95933 29.67981 16238 ft 350 kts 268°
2026-05-06 15:41 40.95716 29.64810 15773 ft 347 kts 268°
2026-05-06 15:41 40.95499 29.61661 15314 ft 345 kts 268°
2026-05-06 15:42 40.95286 29.58565 14887 ft 343 kts 268°
2026-05-06 15:42 40.95071 29.55443 14387 ft 343 kts 268°
2026-05-06 15:42 40.94852 29.52301 13831 ft 342 kts 268°
2026-05-06 15:42 40.94637 29.49229 13321 ft 338 kts 268°
2026-05-06 15:43 40.94424 29.46179 12810 ft 338 kts 268°
2026-05-06 15:43 40.94210 29.43139 12272 ft 338 kts 269°
2026-05-06 15:43 40.94000 29.40164 11744 ft 339 kts 269°
2026-05-06 15:43 40.93782 29.37088 11227 ft 339 kts 268°
2026-05-06 15:44 40.93594 29.34431 10779 ft 339 kts 268°
2026-05-06 15:44 40.93370 29.31311 10326 ft 336 kts 268°
2026-05-06 15:44 40.92943 29.25427 10166 ft 307 kts 268°
2026-05-06 15:45 40.92760 29.22965 10153 ft 288 kts 268°
2026-05-06 15:45 40.92592 29.20658 10164 ft 283 kts 269°
2026-05-06 15:45 40.92392 29.17888 10068 ft 282 kts 269°
2026-05-06 15:45 40.92228 29.15585 9534 ft 289 kts 269°
2026-05-06 15:46 40.91869 29.10696 9055 ft 275 kts 269°
2026-05-06 15:46 40.91677 29.08097 8799 ft 272 kts 269°
2026-05-06 15:46 40.91495 29.05604 8545 ft 272 kts 269°
2026-05-06 15:47 40.91312 29.03123 8300 ft 270 kts 270°
2026-05-06 15:47 40.91407 29.00717 8043 ft 261 kts 291°
2026-05-06 15:47 40.92148 28.98684 7819 ft 252 kts 306°
2026-05-06 15:47 40.93039 28.96835 7581 ft 247 kts 307°
2026-05-06 15:48 40.93943 28.94988 7336 ft 241 kts 306°
2026-05-06 15:48 40.94783 28.93255 7105 ft 237 kts 306°
2026-05-06 15:48 40.95419 28.91930 6933 ft 234 kts 306°
2026-05-06 15:49 40.97071 28.88464 6244 ft 234 kts 305°
2026-05-06 15:49 40.97841 28.86840 5914 ft 234 kts 305°
2026-05-06 15:49 40.98526 28.85392 5619 ft 235 kts 305°
2026-05-06 15:49 40.99196 28.83971 5331 ft 235 kts 304°
2026-05-06 15:50 41.00740 28.80695 4676 ft 236 kts 304°
2026-05-06 15:50 41.01482 28.79119 4360 ft 236 kts 304°
2026-05-06 15:50 41.02143 28.77713 4094 ft 235 kts 304°
2026-05-06 15:51 41.03014 28.76244 3977 ft 222 kts 324°
2026-05-06 15:51 41.07775 28.75938 3848 ft 217 kts
2026-05-06 15:52 41.09204 28.75994 3596 ft 217 kts 360°
2026-05-06 15:52 41.10601 28.75985 3333 ft 217 kts 359°
2026-05-06 15:52 41.12044 28.75954 3060 ft 216 kts 359°
2026-05-06 15:52 41.13584 28.75918 2769 ft 216 kts 359°
2026-05-06 15:53 41.14958 28.75888 2532 ft 211 kts 359°
2026-05-06 15:53 41.17464 28.75836 2105 ft 183 kts 360°
2026-05-06 15:53 41.18631 28.75812 1861 ft 172 kts 360°
2026-05-06 15:54 41.20860 28.75768 1398 ft 157 kts
2026-05-06 15:54 41.21936 28.75748 1196 ft 156 kts
2026-05-06 15:54 41.23288 28.75723 948 ft 156 kts
2026-05-06 15:55 41.24351 28.75703 738 ft 155 kts